Regional Weather Roundup
Issued by NWS

Home | Current Version | Previous Version | Text Only | Print | Product List | Glossary Off
Versions: 1 2 3 4 5 6 7 8 9 10 11 12 13 14 15 16 17 18 19 20 21 22 23 24 25 26 27 28 29 30 31 32 33 34 35 36 37 38 39 40 41 42 43 44 45 46 47 48 49 50

000
ASUS43 KIND 280459
RWRIN

WEATHER ROUNDUP FOR INDIANA
NATIONAL WEATHER SERVICE INDIANAPOLIS IN
1200 AM EST SAT FEB 28 2015

NOTE: "FAIR" INDICATES FEW OR NO CLOUDS BELOW 12,000 FEET WITH NO
SIGNIFICANT WEATHER AND/OR OBSTRUCTIONS TO VISIBILITY.

* - STATION DOES NOT REPORT WEATHER SUCH AS PRECIPITATION OR FOG.

+ - STATION NOT QUALITY CONTROLLED BY THE NATIONAL WEATHER SERVICE.
    USE DATA WITH CAUTION...ESPECIALLY DEWPOINT AND RELATIVE
    HUMIDITY OBSERVATIONS.

INZ001>003-010>013-019-020-280600-
NORTHWEST INDIANA

CITY           SKY/WX    TMP DP  RH WIND       PRES   REMARKS
MONTICELLO +   MOCLDY     1  -3  80 CALM      30.68R
VALPARAISO     NOT AVBL

$$

LMZ046-743>745-280600-
SOUTHERN LAKE MICHIGAN

STATION/POSITION TIME  TEMP WIND        PRES
                       AIR  DIR/SP/G
                 (UTC) (F)  (DEG/KT/KT) (MB)
MICHIGAN CITY    0400    7  190/  7/  7   N/A

$$

INZ004-005-014>016-021>024-280600-
NORTH CENTRAL INDIANA

CITY           SKY/WX    TMP DP  RH WIND       PRES   REMARKS
GOSHEN         PTCLDY    -2  -7  79 CALM      30.65F
SOUTH BEND     PTCLDY     2  -7  66 SW3       30.65F

$$

INZ006>009-017-018-025>027-280600-
NORTHEAST INDIANA

CITY           SKY/WX    TMP DP  RH WIND       PRES   REMARKS
ANGOLA *+      CLEAR     -2 -13  60 CALM      30.63S
FORT WAYNE     PTCLDY     4  -2  76 CALM      30.67R

$$

INZ028-029-035-036-043>045-051>053-280600-
WEST CENTRAL INDIANA

CITY           SKY/WX    TMP DP  RH WIND       PRES   REMARKS
CRAWFORDSVL +  PTCLDY    -3 -10  72 CALM      30.67S
GREENCASTLE +  PTCLDY     9  -6  52 CALM      30.66S
LAFAYETTE      PTCLDY     2  -3  80 CALM      30.70R
TERRE HAUTE    CLEAR      2  -5  72 N3        30.68F

$$

INZ030>032-037>040-046>048-054>057-064-065-280600-
CENTRAL INDIANA

CITY           SKY/WX    TMP DP  RH WIND       PRES   REMARKS
GREENWOOD *+   PTCLDY    10  -2  56 NE5       30.66  WCI   2
INDIANAPOLIS   PTCLDY    10  -2  58 N5        30.65F WCI   2
-EAGLE CREEK   PTCLDY     6  -1  73 N6        30.66S WCI  -4
KOKOMO *+      MOCLDY     1  -6  71 S3        30.68R
MT COMFORT *+  PTCLDY     5  -6  61 CALM      30.66F
SHELBYVILLE    MOCLDY     8  -2  63 NE6       30.66S WCI  -2

$$

INZ033-034-041-042-049-050-058-059-280600-
EAST CENTRAL INDIANA

CITY           SKY/WX    TMP DP  RH WIND       PRES   REMARKS
MUNCIE         PTCLDY     3  -2  79 CALM      30.66R

$$

INZ060-061-067>069-081>083-085>088-280600-
SOUTHWEST INDIANA

CITY           SKY/WX    TMP DP  RH WIND       PRES   REMARKS
EVANSVILLE     CLEAR     19   7  59 NE7       30.66F WCI  10
HUNTINGBURG *+ CLEAR     16   5  62 NE7       30.66S WCI   6

$$

INZ062-063-066-070>080-084-089>092-280600-
SOUTH CENTRAL AND SOUTHEAST INDIANA

CITY           SKY/WX    TMP DP  RH WIND       PRES   REMARKS
BLOOMINGTON    CLEAR      2  -3  80 CALM      30.65R
SEYMOUR +      PTCLDY     7  -2  66 CALM      30.67S

$$



USA.gov is the U.S. government's official web portal to all federal, state and local government web resources and services.